#timestamp,LO_Frequency,Hit,Temp,Hum 
1479801615.8,286046966.5,N,0.0,0.0
1479801635.7,286046966.5,N,0.0,0.0
1479801655.5,286046966.7,N,0.0,0.0
1479801675.4,286046964.5,N,0.0,0.0
1479801695.2,286046964.9,N,0.0,0.0
1479801715.0,286046965.4,N,0.0,0.0
1479801715.9,286046965.4,N,0.0,0.0
1479801735.8,286046967.6,N,0.0,0.0
1479801755.6,286046965.1,N,0.0,0.0
1479801775.5,286046965.1,N,0.0,0.0
1479801795.3,286046965.8,N,0.0,0.0
1479801815.1,286046964.7,N,0.0,0.0
1479801835.9,286046965.8,N,0.0,0.0
1479801855.7,286046965.0,N,0.0,0.0
1479801875.5,286046964.8,N,0.0,0.0
1479801895.4,286046964.7,N,0.0,0.0
1479801915.2,286046965.2,N,0.0,0.0
1479801935.1,286046965.3,N,0.0,0.0
1479801936.0,286046965.3,N,0.0,0.0
1479801955.8,286046967.5,N,0.0,0.0
1479801975.6,286046966.9,N,0.0,0.0
1479801995.5,286046964.6,N,0.0,0.0
1479802015.3,286046964.8,N,0.0,0.0
1479802035.1,286046963.3,N,0.0,0.0
1479802055.9,286046965.2,N,0.0,0.0
1479802075.7,286046965.7,N,0.0,0.0
1479802095.6,286046965.3,N,0.0,0.0
1479802115.4,286046964.7,N,0.0,0.0
1479802135.2,286046964.7,N,0.0,0.0
1479802155.1,286046965.9,N,0.0,0.0
1479802156.0,286046965.9,N,0.0,0.0
1479802175.8,286046963.5,N,0.0,0.0
1479802195.7,286046963.5,N,0.0,0.0
1479802215.5,286046965.7,N,0.0,0.0
1479802235.3,286046962.9,N,0.0,0.0
1479802255.2,286046962.9,N,0.0,0.0
1479802275.0,286046963.4,N,0.0,0.0
1479802275.9,286046963.4,N,0.0,0.0
1479802295.7,286046965.8,N,0.0,0.0
1479802315.6,286046963.0,N,0.0,0.0
1479802335.4,286046963.2,N,0.0,0.0
1479802355.3,286046964.4,N,0.0,0.0
1479802375.1,286046964.1,N,0.0,0.0
1479802395.8,286046961.4,N,0.0,0.0
1479802415.7,286046961.8,N,0.0,0.0
1479802435.5,286046961.5,N,0.0,0.0
1479802455.3,286046964.1,N,0.0,0.0
1479802475.2,286046961.7,N,0.0,0.0
1479802495.0,286046963.9,N,0.0,0.0
1479802495.9,286046963.9,N,0.0,0.0
1479802515.8,286046964.2,N,0.0,0.0
1479802535.6,286046964.1,N,0.0,0.0
1479802555.4,286046961.4,N,0.0,0.0
1479802575.3,286046961.5,N,0.0,0.0
1479802595.1,286046961.6,N,0.0,0.0
1479802615.9,286046964.3,N,0.0,0.0
1479802635.7,286046961.6,N,0.0,0.0
1479802655.5,286046962.0,N,0.0,0.0
1479802675.4,286046962.2,N,0.0,0.0
1479802695.2,286046961.3,N,0.0,0.0
1479802715.0,286046961.8,N,0.0,0.0
1479802716.0,286046961.8,N,0.0,0.0
1479802735.8,286046962.0,N,0.0,0.0
1479802755.6,286046962.7,N,0.0,0.0
1479802775.5,286046962.7,N,0.0,0.0
1479802795.3,286046960.3,N,0.0,0.0
1479802815.1,286046960.5,N,0.0,0.0
1479802835.9,286046961.2,N,0.0,0.0
1479802855.7,286046960.6,N,0.0,0.0
1479802875.6,286046961.2,N,0.0,0.0
1479802895.4,286046958.4,N,0.0,0.0
1479802915.2,286046956.5,N,0.0,0.0
1479802935.1,286046958.1,N,0.0,0.0
1479802936.0,286046958.1,N,0.0,0.0
1479802955.8,286046959.1,N,0.0,0.0
1479802975.6,286046956.7,N,0.0,0.0
1479802995.5,286046956.7,N,0.0,0.0
1479803015.3,286046956.6,N,0.0,0.0
1479803035.2,286046957.9,N,0.0,0.0
1479803055.9,286046958.0,N,0.0,0.0
1479803075.7,286046957.8,N,0.0,0.0
1479803095.6,286046956.7,N,0.0,0.0
1479803115.4,286046957.8,N,0.0,0.0
1479803135.3,286046957.6,N,0.0,0.0
1479803155.1,286046957.9,N,0.0,0.0
1479803156.0,286046957.9,N,0.0,0.0
1479803175.8,286046957.1,N,0.0,0.0
1479803195.7,286046957.6,N,0.0,0.0
1479803215.5,286046955.1,N,0.0,0.0
1479803235.3,286046956.2,N,0.0,0.0
1479803255.2,286046955.2,N,0.0,0.0
1479803275.0,286046955.7,N,0.0,0.0
1479803275.9,286046955.7,N,0.0,0.0
1479803295.8,286046955.8,N,0.0,0.0
1479803315.6,286046955.7,N,0.0,0.0
1479803335.4,286046955.9,N,0.0,0.0
1479803355.3,286046953.3,N,0.0,0.0
1479803375.1,286046953.4,N,0.0,0.0
1479803395.8,286046953.6,N,0.0,0.0
1479803415.7,286046953.3,N,0.0,0.0
1479803435.5,286046954.4,N,0.0,0.0
1479803455.4,286046953.9,N,0.0,0.0
1479803475.2,286046954.2,N,0.0,0.0
1479803495.0,286046956.2,N,0.0,0.0
1479803495.9,286046956.2,N,0.0,0.0
1479803515.8,286046954.1,N,0.0,0.0
1479803535.6,286046954.7,N,0.0,0.0
1479803555.5,286046952.1,N,0.0,0.0
1479803575.3,286046953.8,N,0.0,0.0
1479803595.1,286046954.0,N,0.0,0.0
1479803615.9,286046951.7,N,0.0,0.0
1479803635.7,286046951.8,N,0.0,0.0
1479803655.5,286046954.3,N,0.0,0.0
1479803675.4,286046954.8,N,0.0,0.0
1479803695.2,286046953.5,N,0.0,0.0
1479803715.1,286046953.4,N,0.0,0.0
1479803716.0,286046953.4,N,0.0,0.0
1479803735.8,286046955.9,N,0.0,0.0
1479803755.6,286046955.9,N,0.0,0.0
1479803775.5,286046956.2,N,0.0,0.0
1479803795.3,286046955.5,N,0.0,0.0
1479803815.1,286046955.0,N,0.0,0.0
1479803835.9,286046955.9,N,0.0,0.0
1479803855.7,286046955.2,N,0.0,0.0
1479803875.6,286046957.8,N,0.0,0.0
1479803895.4,286046956.9,N,0.0,0.0
1479803915.2,286046957.2,N,0.0,0.0
1479803935.1,286046957.1,N,0.0,0.0
1479803936.0,286046957.1,N,0.0,0.0
1479803955.8,286046956.8,N,0.0,0.0
1479803975.7,286046956.7,N,0.0,0.0
1479803995.5,286046957.1,N,0.0,0.0
1479804015.3,286046957.1,N,0.0,0.0
1479804035.2,286046957.1,N,0.0,0.0
1479804055.0,286046958.6,N,0.0,0.0
1479804055.9,286046958.6,N,0.0,0.0
1479804075.8,286046958.5,N,0.0,0.0
1479804095.6,286046960.5,N,0.0,0.0
1479804115.4,286046960.2,N,0.0,0.0
1479804135.3,286046962.5,N,0.0,0.0
1479804155.1,286046960.2,N,0.0,0.0
1479804175.8,286046960.1,N,0.0,0.0
1479804195.7,286046962.8,N,0.0,0.0
1479804215.5,286046962.6,N,0.0,0.0
1479804235.4,286046960.3,N,0.0,0.0
1479804255.2,286046960.3,N,0.0,0.0
1479804275.0,286046959.7,N,0.0,0.0
1479804275.9,286046959.7,N,0.0,0.0
1479804295.8,286046962.2,N,0.0,0.0
1479804315.6,286046960.2,N,0.0,0.0
1479804335.4,286046960.2,N,0.0,0.0
1479804355.3,286046962.3,N,0.0,0.0
1479804375.1,286046961.9,N,0.0,0.0
1479804395.9,286046962.1,N,0.0,0.0
1479804415.7,286046961.5,N,0.0,0.0
1479804435.5,286046961.3,N,0.0,0.0
1479804455.4,286046964.1,N,0.0,0.0
1479804475.2,286046961.3,N,0.0,0.0
1479804495.0,286046964.3,N,0.0,0.0
1479804496.0,286046964.3,N,0.0,0.0
1479804515.8,286046963.9,N,0.0,0.0
1479804535.6,286046963.0,N,0.0,0.0
1479804555.5,286046963.7,N,0.0,0.0
1479804575.3,286046962.9,N,0.0,0.0
1479804595.1,286046962.9,N,0.0,0.0
1479804615.9,286046965.8,N,0.0,0.0
1479804635.7,286046965.4,N,0.0,0.0
1479804655.5,286046965.4,N,0.0,0.0
1479804675.4,286046965.4,N,0.0,0.0
1479804695.2,286046967.6,N,0.0,0.0
1479804715.1,286046964.9,N,0.0,0.0
1479804716.0,286046964.9,N,0.0,0.0
1479804735.8,286046964.5,N,0.0,0.0
1479804755.6,286046967.6,N,0.0,0.0
1479804775.5,286046967.3,N,0.0,0.0
1479804795.3,286046967.3,N,0.0,0.0
1479804815.2,286046966.4,N,0.0,0.0
1479804835.9,286046966.2,N,0.0,0.0
1479804855.7,286046966.2,N,0.0,0.0
1479804875.6,286046966.7,N,0.0,0.0
1479804895.4,286046966.2,N,0.0,0.0
1479804915.3,286046968.7,N,0.0,0.0
1479804935.1,286046968.1,N,0.0,0.0
1479804936.0,286046968.1,N,0.0,0.0
1479804955.8,286046968.4,N,0.0,0.0
1479804975.7,286046967.8,N,0.0,0.0
1479804995.5,286046970.0,N,0.0,0.0
1479805015.3,286046972.3,N,0.0,0.0
1479805035.2,286046969.3,N,0.0,0.0
1479805055.0,286046971.3,N,0.0,0.0
1479805055.9,286046971.3,N,0.0,0.0
1479805075.8,286046971.7,N,0.0,0.0
1479805095.6,286046971.1,N,0.0,0.0
1479805115.4,286046971.6,N,0.0,0.0
1479805135.3,286046971.4,N,0.0,0.0
1479805155.1,286046971.3,N,0.0,0.0
1479805175.9,286046973.5,N,0.0,0.0
1479805195.7,286046970.9,N,0.0,0.0
